GSAT0209 (GALILEO 12)

Last updated on July 11, 2020, 5:25 a.m. UTC

1 41174U 15079A   20192.02574772  .00000039  00000-0  00000+0 0  9998
2 41174  54.9990 160.8580 0005950 306.0061  53.8966  1.70473297 28397
UTC
Height (km)
Latitude
Longitude
Inclination
Orbital Period
UTC large
Height (km)
Speed (km/s)
/
Latitude / Longitude
Inclination (degrees)
Orbital Period (minutes)
Azimuth
Elevation
Range (km)
Doppler Factor
iOS Compass Heading
iOS Angle

Next 30 passes for location: Hong Kong

Rise time Rise Azimuth (degrees) Set time Set Azimuth (degrees) Duration Max altitude (degrees)

No matching passes for this satellites